Accueil
METAR-TAF:

METAR-TAF

Aéroports :

Aéroport de Laval - Entrammes

Laval, France

latitude: 48-01-56N, longitude: 000-44-34W, altitude: 101 m

Observation

Le bulletin a été fait il y a 30 minutes, à 21:00 UTC
Vent 7 kt de nord-est
Température 3°C
Humidité 75%
Pression 1017 hPa
Visibilité 10 km ou plus
pas de nuages en-dessous de 1500 mètres et pas de cumulonimbus.

METAR: LFOV 182100Z AUTO 05007KT CAVOK 03/M01 Q1017

Heure: 22:30 (21:30 UTC)


TAF: absent

Observations et prévisions météorologiques de plus de 4000 aéroports (messages METAR et TAF).

Les stations disponibles sont représentées par des disques jaunes et rouges sur la carte.

Passer la souris dessus pour voir le nom de la station.

Cliquer dessus pour voir les observations et prévisions météorologiques.

Pour changer de carte: cliquez sur les boutons verts avec une croix noire pour zoomer, sur le bouton vert avec un tiret pour effectuer un zoom arrière, ou sur les flèches vertes pour les cartes adjacentes.


METAR-TAF: